Regional Weather Roundup
Issued by NWS

Home | Current Version | Previous Version | Graphics & Text | Print | Product List | Glossary On
Versions: 1 2 3 4 5 6 7 8 9 10 11 12 13 14 15 16 17 18 19 20 21 22 23 24 25 26 27 28 29 30 31 32 33 34 35 36 37 38 39 40 41 42 43 44 45 46 47 48 49 50
000
ASUS43 KMPX 270410
RWRMN
WEATHER ROUNDUP FOR MINNESOTA
NATIONAL WEATHER SERVICE TWIN CITIES/CHANHASSEN MN
1100 PM CDT TUE JUL 26 2016


NOTE: "FAIR" INDICATES FEW OR NO CLOUDS BELOW 12,000 FEET WITH NO
SIGNIFICANT WEATHER AND/OR OBSTRUCTIONS TO VISIBILITY. N/A MEANS
CURRENT SKY AND/OR WEATHER CONDITIONS ARE NOT AVAILABLE.

MNZ060>063-068>070-270500-
   Twin Cities Metro

CITY           SKY/WX    TMP DP  RH WIND       PRES   REMARKS
TWIN CITIES    MOCLDY    82  69  64 SW8       29.99R
ST PAUL        CLOUDY    81  68  64 W8        29.99R
CRYSTAL        CLOUDY    77  63  61 CALM      29.98R
BLAINE         CLOUDY    75  63  64 CALM      29.99S
LAKEVILLE      CLOUDY    70  70 100 CALM      30.00S
EDEN PRAIRIE   MOCLDY    78  69  73 SW7       29.99R
LAKEVILLE      CLOUDY    70  70 100 CALM      30.00S
SOUTH ST PAUL  MOCLDY    80  68  65 N3        29.99R
LAKE ELMO      FAIR      73  68  83 CALM      30.01S
$$
MNZ001>005-007-008-013>017-022>024-027-028-270500-
   Northwest Minnesota

CITY           SKY/WX    TMP DP  RH WIND       PRES   REMARKS
BEMIDJI        CLOUDY    72  63  73 N7        29.99S
HALLOCK        PTCLDY    68  59  73 NE7       30.02R
ROSEAU         CLOUDY    66  61  82 N6        30.03R
WARROAD        PTCLDY    70  57  64 N8        30.03R
THIEF RVR FALL CLOUDY    71  63  75 N10       30.01R
CROOKSTON      CLOUDY    72  66  83 N7        29.99F
FOSSTON        CLOUDY    70  63  78 NE6       30.00S
DETROIT LAKES  CLOUDY    64  61  88 S7        30.03
MOORHEAD       MOCLDY    70  66  88 N14G21    29.99R
PARK RAPIDS    CLOUDY    72  68  87 CALM      29.98R
MAHNOMEN       MOCLDY    67  64  88 SW9       30.01R
$$
MNZ006-009>011-018-025>026-270500-
   North Central Minnesota

CITY           SKY/WX    TMP DP  RH WIND       PRES   REMARKS
BAUDETTE       CLOUDY    70  58  65 N7        30.01S
FLAG ISLAND    PTCLDY    72  55  56 N14       30.01S
INTL FALLS     CLOUDY    67  59  75 CALM      29.99S
WASKISH        CLOUDY    68  61  77 NE5       29.99S
BIG FORK       CLOUDY    70  64  83 CALM      30.00R
LONGVILLE      CLOUDY    66  66 100 CALM      29.98R
GRAND RAPIDS   MOCLDY    68  65  90 CALM      30.00S
CRANE LAKE     CLOUDY    59  57  94 S1        30.01R
ORR            CLOUDY    64  61  88 CALM      29.97S
COOK           PTCLDY    66  64  94 CALM      29.99S
WALKER         FAIR      69  67  94 CALM      29.99R
$$
MNZ012-019>021-037-270500-
   Northeast Minnesota

CITY           SKY/WX    TMP DP  RH WIND       PRES   REMARKS
DULUTH         CLOUDY    72  65  78 NW6       29.98F
ELY            CLOUDY    66  61  82 CALM      29.99S
HIBBING        PTCLDY    62  61  96 CALM      29.98S
EVELETH        PTCLDY    65  64  95 CALM      30.00S
DULUTH HARBOR  CLOUDY    75  66  73 S5        29.95F
TWO HARBORS    CLOUDY    75  70  83 CALM      29.96R
SILVER BAY     PTCLDY    70  66  88 CALM      29.96R
GRAND MARAIS     N/A     72  58  61 N8        29.93S
G MARAIS ARPRT CLEAR     61  55  82 N6        30.01S
$$
MNZ029>031-032-039>041-046>048-054>057-064-270500-
   West Central Minnesota

CITY           SKY/WX    TMP DP  RH WIND       PRES   REMARKS
FERGUS FALLS   CLOUDY    70  68  94 NW3       29.98S
WHEATON        CLOUDY    72  66  83 SE5       30.00R
MORRIS         MOCLDY    72  68  88 CALM      29.98S
ALEXANDRIA     CLOUDY    71  68  90 W6        30.00R
ELBOW LAKE     MOCLDY    71  66  84 NW7       29.99S
WADENA         PTCLDY    66  64  94 CALM      29.98S
GLENWOOD       CLOUDY    73  68  83 CALM      29.99F
APPLETON       CLOUDY    72  66  83 CALM      29.98S
BENSON         CLOUDY    72  66  83 CALM      29.98F
ORTONVILLE     CLOUDY    72  64  78 CALM      29.99R
MADISON        CLOUDY    70  66  88 E3        29.98S
WILLMAR        FAIR      73  70  88 CALM      30.00F
$$
MNZ033>034-036-042>043-049>051-058-059-270500-
   Central Minnesota

CITY           SKY/WX    TMP DP  RH WIND       PRES   REMARKS
ST CLOUD       CLOUDY    70  65  84 S3        29.98S
SAUK CENTRE    FAIR      67  65  94 SE3       29.99F
PAYNESVILLE    CLOUDY    69  69 100 CALM      29.99F
AITKIN         CLOUDY    66  61  82 CALM      29.97S
PINE RIVER     PTCLDY    64  64 100 CALM      30.02R
BRAINERD       CLOUDY    64  63  96 CALM      29.99R
STAPLES        CLOUDY    66  61  82 CALM      29.98S
LONG PRAIRIE   FAIR      64  64 100 SE3       29.99F
LITTLE FALLS   PTCLDY    64  61  88 CALM      29.99R
LITCHFIELD     PTCLDY    75  73  94 CALM      29.99F
BUFFALO        CLOUDY    73  64  71 CALM      29.99F
MAPLE LAKE     CLOUDY    73  66  78 CALM      30.00S
HUTCHINSON     PTCLDY    76  72  88 S3        30.00F
$$
MNZ037-044-045-052-053-270500-
   East Central Minnesota

CITY           SKY/WX    TMP DP  RH WIND       PRES   REMARKS
PRINCETON      CLOUDY    72  63  73 SE3       29.98S
MORA           CLOUDY    64  61  88 CALM      29.99S
CAMBRIDGE      CLOUDY    73  61  64 CALM      29.97S
RUSH CITY      CLOUDY    68  62  83 SE3       29.99S
MOOSE LAKE     CLOUDY    68  61  77 CALM      29.95S
HINCKLEY       CLOUDY    64  64 100 S3        29.98S
CLOQUET        CLOUDY    68  61  77 NW3       29.98S
MCGREGOR       PTCLDY    66  63  88 CALM      29.98S
$$
MNZ071>073-080-081-089-090-097-098-270500-
   Southwest Minnesota

CITY           SKY/WX    TMP DP  RH WIND       PRES   REMARKS
MONTEVIDEO     CLOUDY    72  66  83 CALM      30.00S
GRANITE FALLS  MOCLDY    76  66  71 CALM      30.00F
CANBY          MOCLDY    71  67  87 CALM      30.00S
MARSHALL       CLOUDY    73  69  87 CALM      29.99F
REDWOOD FALLS  PTCLDY    74  69  85 S3        29.98S
OLIVIA         CLOUDY    73  68  83 CALM      29.98F
PIPESTONE      CLOUDY    73  66  78 S8        30.01F
WINDOM         CLOUDY    75  66  73 S7        30.01F
WORTHINGTON    CLOUDY    73  68  84 S7        30.03S
JACKSON        PTCLDY    73  64  73 S7        30.03S
TRACY          PTCLDY    75  70  83 CALM      30.00F
SLAYTON        PTCLDY    69  67  93 SE7       30.02F
$$
MNZ065>067-074>077-082>085-091>093-270500-
   South Central Minnesota

CITY           SKY/WX    TMP DP  RH WIND       PRES   REMARKS
MANKATO        CLOUDY    75  66  73 S3        30.01S
NEW ULM        PTCLDY    75  70  83 S3        30.00F
ST JAMES       CLOUDY    70  66  88 S3        30.01F
FAIRMONT       CLOUDY    73  66  78 S3        30.01R
GLENCOE        CLOUDY    76  73  88 S3        29.99S
FARIBAULT      CLOUDY    72  70  94 CALM      30.02R
OWATONNA       PTCLDY    75  68  78 S6        30.02S
WASECA         PTCLDY    72  68  88 S5        30.03S
ALBERT LEA     PTCLDY    75  68  78 CALM      30.04R
$$
MNZ078>079-086>088-094>096-270500-
   Southeast Minnesota

CITY           SKY/WX    TMP DP  RH WIND       PRES   REMARKS
ROCHESTER      CLEAR     71  69  93 SW8       30.04R
RED WING       PTCLDY    73  70  88 CALM      29.98S
STANTON        CLOUDY    72  68  88 CALM      29.99S
DODGE CENTER   CLEAR     72  68  88 S7        30.03S
WINONA         PTCLDY    73  68  83 CALM      29.99S
AUSTIN         CLEAR     72  66  83 CALM      30.04S
PRESTON        CLEAR     72  66  83 SW7       30.05R
$$
ABBREVIATIONS USED IN REMARKS
   TC - TEMPERATURES IN CELSIUS
  WCI - WIND CHILL INDEX
   HX - HEAT INDEX
  VSB - VISIBILITY
$$




USA.gov is the U.S. government's official web portal to all federal, state and local government web resources and services.